This is the latest recevied weather packets stored in our database for station/object AE5HO. If no packets are shown the sender has not sent any weather packets the latest 1 day(s).
| Time | Temp. | Humidity | Pressure | Rain* | Wind** | Luminosity | Snow |
|---|---|---|---|---|---|---|---|
| 1778031841 | 21.67° C | 72% | 1006.6 hPa | 0 mm | 0 m/s | 0 W/m² | - |
| 1778031538 | 21.67° C | 72% | 1007 hPa | 0 mm | 0 m/s | 0 W/m² | - |
| 1778031236 | 21.67° C | 72% | 1006.6 hPa | 0 mm | 0.45 m/s, 249° | 0 W/m² | - |
| 1778030932 | 21.67° C | 72% | 1006.9 hPa | 0 mm | 0 m/s | 0 W/m² | - |
| 1778030629 | 21.67° C | 71% | 1006.5 hPa | 0 mm | 0 m/s | 0 W/m² | - |
| 1778030326 | 22.22° C | 71% | 1006.7 hPa | 0 mm | 0.45 m/s, 263° | 0 W/m² | - |
| 1778030023 | 22.22° C | 71% | 1006.6 hPa | 0 mm | 0 m/s | 0 W/m² | - |
| 1778029720 | 22.78° C | 70% | 1006.7 hPa | 0 mm | 0 m/s | 0 W/m² | - |
| 1778029418 | 22.78° C | 69% | 1006.6 hPa | 0 mm | 0 m/s | 0 W/m² | - |
| 1778029115 | 22.78° C | 69% | 1006.5 hPa | 0 mm | 0.45 m/s, 283° | 0 W/m² | - |
| 1778028811 | 22.78° C | 68% | 1006.6 hPa | 0 mm | 0 m/s | 1 W/m² | - |
| 1778028507 | 23.33° C | 69% | 1006.1 hPa | 0 mm | 0.45 m/s, 98° | 2 W/m² | - |
| 1778028205 | 23.33° C | 68% | 1005.8 hPa | 0 mm | 0 m/s | 4 W/m² | - |
| 1778027901 | 23.33° C | 68% | 1005.5 hPa | 0 mm | 0 m/s | 2 W/m² | - |
| 1778027598 | 23.89° C | 67% | 1005.8 hPa | 0 mm | 0 m/s | 0 W/m² | - |
| 1778027294 | 23.89° C | 67% | 1005.7 hPa | 0 mm | 1.34 m/s, 84° | 2 W/m² | - |
| 1778026991 | 23.89° C | 67% | 1005.4 hPa | 0 mm | 0.89 m/s, 90° | 4 W/m² | - |
| 1778026686 | 24.44° C | 67% | 1005.4 hPa | 0 mm | 0 m/s | 5 W/m² | - |
| 1778026384 | 24.44° C | 67% | 1005.4 hPa | 0 mm | 0 m/s | 12 W/m² | - |
| 1778026080 | 25° C | 66% | 1005.5 hPa | 0 mm | 1.79 m/s, 277° | 17 W/m² | - |
| 1778025778 | 25° C | 66% | 1005.4 hPa | 0 mm | 1.34 m/s, 17° | 22 W/m² | - |
| 1778025475 | 25.56° C | 65% | 1005.1 hPa | 0 mm | 0.89 m/s, 56° | 28 W/m² | - |
| 1778025173 | 26.11° C | 65% | 1005.3 hPa | 0 mm | 0 m/s | 35 W/m² | - |
| 1778024869 | 26.11° C | 64% | 1005.3 hPa | 0 mm | 0 m/s | 43 W/m² | - |
| 1778024567 | 26.11° C | 64% | 1005 hPa | 0 mm | 0.45 m/s, 254° | 42 W/m² | - |
* Rain latest hour (hover to see other rain measurements)
** Current wind speed in m/s (hover to see current wind gust speed)